Location: Blankensee
(53.5126°N, 14.3055°E)
Time: 18:36:17
(UTC+00:00)

Cosmos 1626 - Pass Details

Date: 08 August 2020
Orbit: 491 x 494 km, 82.5° (Epoch: 19 September)

Event Time Altitude Azimuth Distance (km) Brightness Sun altitude
Rises 02:09:27 0° 337° (NNW) 2,595 6.1 -10.4°
Reaches altitude 10° 02:11:57 10° 321° (NW) 1,706 4.9 -10.1°
Maximum altitude 02:14:44 20° 272° (W) 1,189 3.7 -9.8°
Enters shadow 02:16:47 14° 232° (SW) 1,487 3.9 -9.6°
